CW7615 Weather Reports


Display with metric or nautical units.
time (UTC)temp
F
wind
direction
speed
MPH
gust
MPH
rain 1hr
in
rain 24hr
in
rain mn
in
humidity
%
barometer
mb
20260904232038 77 360 5.0 9.0 0.00 0.00 0.00 73 1019.5
20260904231538 78 350 3.0 8.0 0.00 0.00 0.00 73 1019.7
20260904231038 78 339 4.0 6.0 0.00 0.00 0.00 73 1019.7
20260904230539 78 345 3.0 5.0 0.00 0.00 0.00 73 1019.7
20260904230037 78 355 3.0 6.0 0.00 0.00 0.00 73 1019.7
20260904225536 78 341 3.0 6.0 0.00 0.00 0.00 73 1019.5
20260904225034 77 355 2.0 5.0 0.00 0.00 0.00 73 1019.5
20260904224534 77 331 1.0 4.0 0.00 0.00 0.00 75 1019.4
20260904224034 77 346 0.0 2.0 0.00 0.00 0.00 75 1019.4
20260904223534 77 346 0.0 2.0 0.00 0.00 0.00 76 1019.4
20260904223033 77 346 0.0 1.0 0.00 0.00 0.00 75 1019.4
20260904222534 77 346 0.0 2.0 0.00 0.00 0.00 76 1019.4
20260904222032 77 346 0.0 4.0 0.00 0.00 0.00 76 1019.3
20260904221532 77 348 2.0 5.0 0.00 0.00 0.00 77 1019.5
20260904221031 77 326 2.0 5.0 0.00 0.00 0.00 78 1019.4
20260904220632 77 338 1.0 4.0 0.00 0.00 0.00 78 1019.5
20260904220031 77 349 1.0 3.0 0.00 0.00 0.00 79 1019.6
20260904215531 77 344 1.0 3.0 0.00 0.00 0.00 78 1019.6
20260904215031 77 355 0.0 1.0 0.00 0.00 0.00 79 1019.8
20260904214529 78 355 0.0 1.0 0.00 0.00 0.00 79 1019.8
20260904214029 78 355 0.0 2.0 0.00 0.00 0.00 79 1019.8
20260904213531 78 355 0.0 2.0 0.00 0.00 0.00 80 1019.8
20260904213030 78 355 0.0 0.0 0.00 0.00 0.00 80 1019.9
20260904212529 79 355 0.0 2.0 0.00 0.00 0.00 79 1019.9
20260904212028 79 355 0.0 3.0 0.00 0.00 0.00 78 1019.9
20260904211528 79 346 1.0 3.0 0.00 0.00 0.00 78 1019.9
20260904211029 79 346 1.0 4.0 0.00 0.00 0.00 78 1019.9
20260904210528 79 315 2.0 4.0 0.00 0.00 0.00 77 1020.0
20260904210030 79 345 0.0 2.0 0.00 0.00 0.00 77 1019.9
20260904205530 79 345 0.0 3.0 0.00 0.00 0.00 78 1019.9
20260904205027 79 345 0.0 3.0 0.00 0.00 0.00 78 1020.0
20260904204527 80 343 0.0 1.0 0.00 0.00 0.00 78 1019.8
20260904204028 80 344 0.0 1.0 0.00 0.00 0.00 78 1019.9
20260904203527 80 343 0.0 1.0 0.00 0.00 0.00 78 1019.8
20260904203027 80 343 0.0 2.0 0.00 0.00 0.00 78 1019.7
20260904202527 80 344 0.0 2.0 0.00 0.00 0.00 78 1019.7
20260904202026 80 343 0.0 3.0 0.00 0.00 0.00 78 1019.5
20260904201526 80 342 1.0 3.0 0.00 0.00 0.00 78 1019.3
20260904201026 80 332 0.0 3.0 0.00 0.00 0.00 78 1019.4
20260904200528 80 333 1.0 3.0 0.00 0.00 0.00 78 1019.3
20260904200026 80 355 2.0 4.0 0.00 0.00 0.00 78 1019.1
20260904195529 80 355 1.0 4.0 0.00 0.00 0.00 78 1019.1
20260904195025 80 5 1.0 3.0 0.00 0.00 0.00 79 1019.2
20260904194526 80 9 1.0 3.0 0.00 0.00 0.00 79 1019.1
20260904194025 80 10 1.0 3.0 0.00 0.00 0.00 79 1019.1
20260904193525 80 11 0.0 3.0 0.00 0.00 0.00 79 1019.0
20260904193127 80 65 1.0 3.0 0.00 0.00 0.00 79 1018.9
20260904192524 80 150 0.0 0.0 0.00 0.00 0.00 80 1018.8
20260904192023 80 150 0.0 0.0 0.00 0.00 0.00 80 1018.8
20260904191524 80 150 0.0 1.0 0.00 0.00 0.00 80 1018.8
20260904191024 80 142 0.0 1.0 0.00 0.00 0.00 80 1018.7
20260904190524 80 142 0.0 1.0 0.00 0.00 0.00 80 1018.7
20260904190027 80 146 0.0 0.0 0.00 0.00 0.00 80 1018.6
20260904185523 80 146 0.0 0.0 0.00 0.00 0.00 80 1018.6
20260904185022 80 146 0.0 0.0 0.00 0.00 0.00 80 1018.6
20260904184522 80 146 0.0 0.0 0.00 0.00 0.00 79 1018.5
20260904184023 80 146 0.0 0.0 0.00 0.00 0.00 79 1018.5
20260904183524 80 146 0.0 0.0 0.00 0.00 0.00 78 1018.6
20260904183026 80 146 0.0 1.0 0.00 0.00 0.00 78 1018.6
20260904182526 81 146 0.0 1.0 0.00 0.00 0.00 78 1018.5
20260904182022 81 146 0.0 0.0 0.00 0.00 0.00 78 1018.5
20260904181522 81 146 0.0 1.0 0.00 0.00 0.00 78 1018.4
20260904181025 81 146 0.0 1.0 0.00 0.00 0.00 77 1018.4
20260904180525 81 146 0.0 1.0 0.00 0.00 0.00 77 1018.3
20260904180022 81 146 0.0 2.0 0.00 0.00 0.00 78 1018.4
20260904175525 81 146 1.0 3.0 0.00 0.00 0.00 77 1018.3
20260904175021 81 145 1.0 3.0 0.00 0.00 0.00 77 1018.1
20260904174521 81 145 1.0 3.0 0.00 0.00 0.00 77 1018.2
20260904174021 81 144 1.0 3.0 0.00 0.00 0.00 77 1018.2
20260904173520 82 130 1.0 3.0 0.00 0.00 0.00 77 1018.1
20260904173020 82 130 1.0 3.0 0.00 0.00 0.00 76 1018.2
20260904172519 82 129 0.0 2.0 0.00 0.00 0.00 76 1018.2
20260904172019 82 128 0.0 2.0 0.00 0.00 0.00 76 1018.3
20260904171518 82 128 0.0 0.0 0.00 0.00 0.00 77 1018.3
20260904171018 81 128 0.0 0.0 0.00 0.00 0.00 78 1018.4
20260904170518 81 128 0.0 1.0 0.00 0.00 0.00 79 1018.5
20260904170019 80 128 0.0 3.0 0.00 0.00 0.00 79 1018.6
20260904165521 80 128 1.0 3.0 0.00 0.00 0.00 78 1018.6
20260904165017 81 128 1.0 4.0 0.00 0.00 0.00 78 1018.6
20260904164517 81 128 2.0 6.0 0.00 0.00 0.00 78 1018.6
20260904164017 81 128 3.0 6.0 0.00 0.00 0.00 77 1018.6
20260904163516 82 126 3.0 6.0 0.00 0.00 0.00 76 1018.6
20260904163016 82 128 3.0 5.0 0.00 0.00 0.00 76 1018.4
20260904162517 82 119 2.0 6.0 0.00 0.00 0.00 75 1018.5
20260904162016 83 123 2.0 6.0 0.00 0.00 0.00 75 1018.4
20260904161515 83 160 2.0 8.0 0.00 0.00 0.00 76 1018.5
20260904161018 82 138 2.0 8.0 0.00 0.00 0.00 76 1018.5
20260904160515 83 178 3.0 8.0 0.00 0.00 0.00 75 1018.5
20260904160015 83 114 4.0 9.0 0.00 0.00 0.00 75 1018.6
20260904155515 84 122 5.0 9.0 0.00 0.00 0.00 74 1018.6
20260904155013 84 128 4.0 9.0 0.00 0.00 0.00 73 1018.6
20260904154513 84 134 4.0 7.0 0.00 0.00 0.00 74 1018.6
20260904154013 84 123 2.0 4.0 0.00 0.00 0.00 74 1018.5
20260904153512 83 122 2.0 4.0 0.00 0.00 0.00 75 1018.6
20260904153018 82 119 2.0 3.0 0.00 0.00 0.00 77 1018.7
20260904152510 81 121 0.0 4.0 0.00 0.00 0.00 78 1018.8
20260904152010 81 120 2.0 4.0 0.00 0.00 0.00 78 1019.0
20260904151509 81 114 2.0 6.0 0.00 0.00 0.00 79 1019.0
20260904151009 81 126 3.0 7.0 0.00 0.00 0.00 78 1019.1
20260904150509 81 118 4.0 7.0 0.00 0.00 0.00 78 1019.3
20260904150017 82 129 2.0 6.0 0.00 0.00 0.00 77 1019.2
20260904145509 82 126 2.0 7.0 0.00 0.00 0.00 77 1019.2
20260904145008 82 132 3.0 9.0 0.00 0.00 0.00 76 1019.2
20260904144508 83 103 7.0 9.0 0.00 0.00 0.00 76 1019.3
20260904144007 83 109 4.0 9.0 0.00 0.00 0.00 76 1019.2
20260904143507 83 168 4.0 9.0 0.00 0.00 0.00 76 1019.3
20260904143007 83 132 3.0 9.0 0.00 0.00 0.00 75 1019.3
20260904142507 83 128 6.0 9.0 0.00 0.00 0.00 74 1019.1
20260904142007 83 131 3.0 9.0 0.00 0.00 0.00 75 1019.3
20260904141506 83 146 4.0 9.0 0.00 0.00 0.00 75 1019.4
20260904141005 84 119 6.0 11.0 0.00 0.00 0.00 75 1019.4
20260904140505 84 117 6.0 11.0 0.00 0.00 0.00 74 1019.4
20260904140009 84 121 5.0 9.0 0.00 0.00 0.00 75 1019.5
20260904135503 83 111 6.0 9.0 0.00 0.00 0.00 75 1019.6
20260904135002 83 134 3.0 8.0 0.00 0.00 0.00 76 1019.6
20260904134500 82 122 4.0 8.0 0.00 0.00 0.00 77 1019.9
20260904134100 82 109 4.0 8.0 0.00 0.00 0.00 77 1019.9
20260904133559 83 124 5.0 8.0 0.00 0.00 0.00 76 1020.2
20260904133501 83 125 5.0 8.0 0.00 0.00 0.00 76 1020.1
20260904133059 83 113 5.0 10.0 0.00 0.00 0.00 76 1020.1
20260904132600 83 107 4.0 10.0 0.00 0.00 0.00 76 1020.1
20260904132059 83 126 5.0 8.0 0.00 0.00 0.00 76 1020.3
20260904131629 83 138 3.0 8.0 0.00 0.00 0.00 77 1020.2
20260904131057 82 130 4.0 8.0 0.00 0.00 0.00 77 1020.2
20260904130556 83 121 4.0 9.0 0.00 0.00 0.00 76 1020.3
20260904130056 83 118 4.0 9.0 0.00 0.00 0.00 77 1020.4
20260904125556 83 98 3.0 9.0 0.00 0.00 0.00 77 1020.4
20260904125157 82 121 4.0 9.0 0.00 0.00 0.00 78 1020.5
20260904124554 82 98 3.0 8.0 0.00 0.00 0.00 78 1020.6
20260904124054 82 125 4.0 9.0 0.00 0.00 0.00 78 1020.6
20260904123553 82 111 5.0 8.0 0.00 0.00 0.00 78 1020.8
20260904123057 82 119 4.0 8.0 0.00 0.00 0.00 80 1020.8
20260904122554 81 134 3.0 8.0 0.00 0.00 0.00 79 1020.9
20260904122052 81 113 4.0 8.0 0.00 0.00 0.00 80 1020.9
20260904121553 81 113 5.0 10.0 0.00 0.00 0.00 79 1020.9
20260904121151 81 123 5.0 10.0 0.00 0.00 0.00 79 1020.9
20260904120552 82 131 5.0 9.0 0.00 0.00 0.00 78 1020.9
20260904120055 82 115 2.0 10.0 0.00 0.00 0.00 79 1020.9
20260904115552 82 107 6.0 10.0 0.00 0.00 0.00 78 1021.0
20260904115050 82 151 5.0 10.0 0.00 0.00 0.00 78 1020.9
20260904114553 82 114 4.0 10.0 0.00 0.00 0.00 78 1020.9
20260904114049 82 123 5.0 10.0 0.00 0.00 0.00 78 1020.9
20260904113549 82 116 4.0 8.0 0.00 0.00 0.00 78 1021.0
20260904113052 82 116 3.0 10.0 0.00 0.00 0.00 78 1021.0
20260904112547 81 103 4.0 10.0 0.00 0.00 0.00 79 1021.0
20260904112047 81 126 5.0 11.0 0.00 0.00 0.00 78 1021.2
20260904111547 82 119 7.0 11.0 0.00 0.00 0.00 78 1021.2
20260904111050 82 119 6.0 10.0 0.00 0.00 0.00 77 1021.1
20260904110550 83 130 5.0 9.0 0.00 0.00 0.00 77 1021.2
20260904110045 83 114 6.0 9.0 0.00 0.00 0.00 76 1021.3
20260904105545 83 131 4.0 8.0 0.00 0.00 0.00 77 1021.4
20260904105046 83 88 2.0 7.0 0.00 0.00 0.00 78 1021.3
20260904104543 82 121 2.0 7.0 0.00 0.00 0.00 78 1021.3
20260904104044 82 126 2.0 7.0 0.00 0.00 0.00 78 1021.4
20260904103540 82 121 4.0 10.0 0.00 0.00 0.00 79 1021.5
20260904103050 82 123 3.0 9.0 0.00 0.00 0.00 79 1021.5
20260904102539 81 107 2.0 8.0 0.00 0.00 0.00 80 1021.5
20260904102037 81 90 4.0 8.0 0.00 0.00 0.00 81 1021.5
20260904101538 80 119 2.0 8.0 0.00 0.00 0.00 81 1021.5
20260904101035 80 113 3.0 8.0 0.00 0.00 0.00 81 1021.6
20260904100534 80 130 2.0 7.0 0.00 0.00 0.00 81 1021.7
20260904100034 80 116 4.0 7.0 0.00 0.00 0.00 81 1021.8
20260904095534 80 117 3.0 9.0 0.00 0.00 0.00 81 1021.7
20260904095034 80 104 4.0 9.0 0.00 0.00 0.00 81 1021.7
20260904094532 80 123 4.0 8.0 0.00 0.00 0.00 81 1021.7
20260904094031 80 139 4.0 8.0 0.00 0.00 0.00 80 1021.8
20260904093531 81 134 4.0 8.0 0.00 0.00 0.00 80 1021.6
20260904093031 81 133 3.0 7.0 0.00 0.00 0.00 80 1021.7
20260904092533 80 117 2.0 7.0 0.00 0.00 0.00 81 1021.7
20260904092029 80 128 3.0 8.0 0.00 0.00 0.00 81 1021.7
20260904091527 80 115 4.0 8.0 0.00 0.00 0.00 81 1021.7
20260904091028 80 148 2.0 7.0 0.00 0.00 0.00 81 1021.6
20260904090525 80 100 3.0 7.0 0.00 0.00 0.00 81 1021.7
20260904090024 80 140 3.0 8.0 0.00 0.00 0.00 81 1021.7
20260904085523 79 105 4.0 8.0 0.00 0.00 0.00 81 1021.5
20260904085021 79 98 4.0 7.0 0.00 0.00 0.00 81 1021.6
20260904084520 78 113 3.0 7.0 0.00 0.00 0.00 82 1021.5
20260904084018 78 122 3.0 7.0 0.00 0.00 0.00 83 1021.5
20260904083516 77 128 1.0 3.0 0.00 0.00 0.00 85 1021.5
20260904083015 76 167 1.0 4.0 0.00 0.00 0.00 85 1021.3
20260904082515 76 175 2.0 5.0 0.00 0.00 0.00 85 1021.3
20260904082012 76 182 3.0 5.0 0.00 0.00 0.00 85 1021.3
20260904081511 75 190 2.0 3.0 0.00 0.00 0.00 86 1021.2
20260904081009 75 161 1.0 4.0 0.00 0.00 0.00 87 1021.3
20260904080509 75 145 0.0 0.0 0.00 0.00 0.00 87 1021.4
20260904080007 75 142 0.0 0.0 0.00 0.00 0.00 87 1021.5
20260904075506 75 142 0.0 0.0 0.00 0.00 0.00 88 1021.7
20260904075005 75 92 0.0 1.0 0.00 0.00 0.00 88 1021.6
20260904074510 74 91 0.0 1.0 0.00 0.00 0.00 89 1021.7
20260904074009 74 90 0.0 0.0 0.00 0.00 0.00 88 1021.6
20260904073503 74 90 0.0 0.0 0.00 0.00 0.00 88 1021.7
20260904073007 74 15 0.0 0.0 0.00 0.00 0.00 88 1021.7
20260904072501 74 15 0.0 1.0 0.00 0.00 0.00 88 1021.6
20260904072000 73 15 0.0 3.0 0.00 0.00 0.00 88 1021.7
20260904071600 73 14 0.0 3.0 0.00 0.00 0.00 87 1021.7
20260904071100 72 13 1.0 3.0 0.00 0.00 0.00 85 1021.7
20260904070557 72 10 1.0 5.0 0.00 0.00 0.00 84 1021.7
20260904070116 72 5 1.0 5.0 0.00 0.00 0.00 83 1021.8
20260904065557 71 355 1.0 4.0 0.00 0.00 0.00 84 1021.8
20260904065056 71 355 1.0 4.0 0.00 0.00 0.00 83 1021.8
20260904064551 71 350 0.0 2.0 0.00 0.00 0.00 84 1021.8
20260904064051 71 341 0.0 3.0 0.00 0.00 0.00 85 1021.7
20260904063554 71 342 1.0 4.0 0.00 0.00 0.00 86 1021.5
20260904063100 70 355 1.0 4.0 0.00 0.00 0.00 83 1021.6
20260904062550 70 343 2.0 4.0 0.00 0.00 0.00 83 1021.5
20260904062049 70 350 0.0 3.0 0.00 0.00 0.00 84 1021.5
20260904061549 70 350 1.0 3.0 0.00 0.00 0.00 85 1021.3
20260904061048 70 349 0.0 2.0 0.00 0.00 0.00 86 1021.3
20260904060548 70 350 0.0 2.0 0.00 0.00 0.00 86 1021.3
20260904060048 70 350 0.0 0.0 0.00 0.00 0.00 84 1021.3
20260904055546 70 350 0.0 0.0 0.00 0.00 0.00 84 1021.2
20260904055050 71 350 0.0 1.0 0.00 0.00 0.00 85 1021.2
20260904054546 71 350 0.0 1.0 0.00 0.00 0.00 84 1021.2
20260904054045 70 350 0.0 1.0 0.00 0.00 0.00 81 1021.1
20260904053544 70 350 0.0 3.0 0.00 0.00 0.00 78 1021.0
20260904053044 70 350 1.0 3.0 0.00 0.00 0.00 78 1021.1
20260904052543 70 355 1.0 2.0 0.00 0.00 0.00 81 1021.0
20260904052042 71 355 0.0 1.0 0.00 0.00 0.00 83 1021.1
20260904051542 71 355 0.0 1.0 0.00 0.00 0.00 83 1021.2
20260904051042 71 355 0.0 1.0 0.00 0.00 0.00 82 1021.4
20260904050540 71 355 0.0 1.0 0.00 0.00 0.00 81 1021.4
20260904050041 71 355 0.0 1.0 0.00 0.00 0.00 79 1021.4
20260904045541 71 355 0.0 2.0 0.00 0.00 0.00 77 1021.3
20260904045039 71 355 0.0 3.0 0.00 0.00 0.00 76 1021.3
20260904044539 71 355 1.0 4.0 0.00 0.00 0.00 76 1021.4
20260904044038 71 350 2.0 5.0 0.00 0.00 0.00 76 1021.4
20260904043549 71 319 2.0 5.0 0.00 0.00 0.00 77 1021.4
20260904043038 71 360 1.0 4.0 0.00 0.00 0.00 78 1021.3
20260904042538 71 360 1.0 4.0 0.00 0.00 0.00 77 1021.2
20260904042038 71 342 1.0 3.0 0.00 0.00 0.00 78 1021.3
20260904041538 71 336 0.0 3.0 0.00 0.00 0.00 76 1021.3
20260904041040 71 329 1.0 4.0 0.00 0.00 0.00 75 1021.3
20260904040537 71 5 1.0 4.0 0.00 0.00 0.00 76 1021.3
20260904040039 72 341 0.0 1.0 0.00 0.00 0.00 79 1021.4
20260904035537 72 341 0.0 2.0 0.00 0.00 0.00 79 1021.4
20260904035035 71 341 1.0 4.0 0.00 0.00 0.00 75 1021.2
20260904034535 71 340 1.0 4.0 0.00 0.00 0.00 74 1021.2
20260904034039 71 355 2.0 4.0 0.00 0.00 0.00 75 1021.2
20260904033535 72 346 0.0 4.0 0.00 0.00 0.00 75 1021.4
20260904033036 72 340 0.0 3.0 0.00 0.00 0.00 75 1021.5
20260904032533 72 327 0.0 4.0 0.00 0.00 0.00 76 1021.5
20260904032033 72 327 0.0 4.0 0.00 0.00 0.00 75 1021.5
20260904031535 72 334 1.0 4.0 0.00 0.00 0.00 75 1021.4
20260904031034 72 360 0.0 3.0 0.00 0.00 0.00 76 1021.4
20260904030532 72 360 1.0 3.0 0.00 0.00 0.00 75 1021.4
20260904030031 72 360 0.0 2.0 0.00 0.00 0.00 76 1021.4
20260904025531 73 360 0.0 0.0 0.00 0.00 0.00 79 1021.3
20260904025031 73 360 0.0 1.0 0.00 0.00 0.00 77 1021.3
20260904024531 73 360 0.0 1.0 0.00 0.00 0.00 75 1021.2
20260904024030 73 360 0.0 0.0 0.00 0.00 0.00 75 1021.1
20260904023529 73 360 0.0 3.0 0.00 0.00 0.00 74 1021.0
20260904023029 73 360 0.0 5.0 0.00 0.00 0.00 73 1021.1
20260904022529 73 360 2.0 5.0 0.00 0.00 0.00 73 1021.0
20260904022033 73 355 2.0 5.0 0.00 0.00 0.00 74 1021.0
20260904021535 73 355 3.0 5.0 0.00 0.00 0.00 74 1021.0
20260904021029 73 339 2.0 5.0 0.00 0.00 0.00 75 1021.0
20260904020528 73 351 3.0 5.0 0.00 0.00 0.00 75 1021.0
20260904020026 73 346 2.0 6.0 0.00 0.00 0.00 76 1021.1
20260904015526 73 333 2.0 6.0 0.00 0.00 0.00 76 1021.0
20260904015027 73 311 2.0 5.0 0.00 0.00 0.00 77 1021.2
20260904014525 73 326 3.0 5.0 0.00 0.00 0.00 77 1021.3
20260904014022 73 344 2.0 5.0 0.00 0.00 0.00 78 1021.2
20260904013521 73 323 2.0 4.0 0.00 0.00 0.00 78 1021.4
20260904013023 73 344 1.0 6.0 0.00 0.00 0.00 78 1021.4
20260904012520 73 334 3.0 6.0 0.00 0.00 0.00 78 1021.5
20260904012026 73 314 1.0 3.0 0.00 0.00 0.00 81 1021.7
20260904011518 73 317 1.0 4.0 0.00 0.00 0.00 83 1021.7
20260904011019 74 322 1.0 5.0 0.00 0.00 0.00 83 1021.7
20260904010520 74 329 2.0 5.0 0.00 0.00 0.00 83 1021.7
20260904010018 74 319 1.0 4.0 0.00 0.00 0.00 83 1021.9
20260904005518 74 331 0.0 3.0 0.00 0.00 0.00 84 1021.9
20260904005017 74 331 0.0 2.0 0.00 0.00 0.00 84 1021.9
20260904004517 74 331 0.0 3.0 0.00 0.00 0.00 83 1022.0
20260904004017 74 330 1.0 3.0 0.00 0.00 0.00 81 1022.0
20260904003516 74 329 1.0 4.0 0.00 0.00 0.00 81 1022.0
20260904003015 74 350 1.0 4.0 0.00 0.00 0.00 82 1022.0
20260904002515 74 355 0.0 0.0 0.00 0.00 0.00 83 1022.0
20260904002016 74 355 0.0 0.0 0.00 0.00 0.00 83 1022.0
20260904001517 74 355 0.0 0.0 0.00 0.00 0.00 83 1022.0
20260904001014 74 355 0.0 0.0 0.00 0.00 0.00 83 1021.9
20260904000514 74 355 0.0 0.0 0.00 0.00 0.00 84 1021.8
20260904000015 74 355 0.0 0.0 0.00 0.00 0.00 84 1021.8
20260903235513 74 355 0.0 0.0 0.00 0.00 0.00 83 1021.8
20260903235013 74 355 0.0 0.0 0.00 0.00 0.00 81 1021.8
20260903234513 74 355 0.0 0.0 0.00 0.00 0.00 80 1021.8
20260903234012 74 350 0.0 0.0 0.00 0.00 0.00 80 1021.8
20260903233510 74 350 0.0 0.0 0.00 0.00 0.00 82 1021.8
20260903233010 75 345 0.0 0.0 0.00 0.00 0.00 85 1021.8